www.pogodaiklimat.ru

Погода и климат >> Архив погоды >> Коморские Острова >> Dzaoudzi


ПОГОДА в Dzaoudzi

  • Прогноз погоды в Dzaoudzi
  • Монитор погоды в Dzaoudzi
  • Климат города

АРХИВ ПОГОДЫ в Dzaoudzi

Время (UTC), дата Ветер
(напр.,м/с)
 
Видим.   Явления Облачность Т
(С)
Тd
(С)
f
(%)
Тe
(С)
Тes
(С)
Комфортность P
(гПа)
Po
(гПа)
Тmin
(С)
Tmax
(С)
R
(мм)
S
(см)
09 17.02 Ю 6
{8}
20 км 9/3 600 м
[Cb cap Ac cuf Cs]
+29.6 +24.7 75 +42 +46 опасность
перегрева
1012.6 1013.0
12 17.02 Ю 4
{7}
20 км 8/1 600 м
[Cu Sc Ac trans Cs]
+30.6 +24.5 70 +43 +48 опасность
перегрева
1010.7 1011.0
15 17.02 ЮВ 3
{5}
20 км 6/1 540 м
[Cu Sc Ac trans Cs]
+29.9 +23.8 70 +41 +41 опасность
перегрева
1011.1 1011.0
18 17.02 Ю 3
{5}
20 км н/о +28.1 +23.2 75 +38 +38 очень
душно
1012.0 1012.0 +31.2
21 17.02 З 2
{3}
20 км н/о +27.2 +24.1 83 +38 +38 очень
душно
1012.9 1013.0
00 18.02 С 2
{3}
20 км н/о +25.9 +23.2 85 +35 +35 очень
душно
1011.1 1011.0
03 18.02 С 3
{3}
20 км 9/4 540 м
[Cu Sc Ac und]
+26.6 +23.7 84 +36 +36 очень
душно
1012.8 1013.0
06 18.02 СВ 2 12 км слабый ливневой дождь, в посл. час гроза 10/9 600 м
[Cb cap]
+26.7 +21.0 71 +34 +34 очень
душно
1014.8 1015.0 +25.8
09 18.02 Ю 4
{8}
5000 м слабый ливневой дождь, в посл. час гроза 9/3 800 м
[Cu Sc Ac As]
+26.8 +22.6 78 +35 +39 очень
душно
1013.7 1014.0 1
12 18.02 С 4
{7}
15 км 9/3 800 м
[Cu Sc Ac As]
+28.0 +22.5 72 +37 +39 очень
душно
1010.5 1011.0 1
15 18.02 С 4
{7}
15 км 8/3 800 м
[Cu Sc Ac As Ci fib]
+27.9 +23.5 77 +38 +38 очень
душно
1010.0 1010.0
18 18.02 С 3
{6}
20 км н/о +27.2 +23.0 78 +36 +36 очень
душно
1012.4 1012.0 +28.5 1
21 18.02 штиль 0
{2}
20 км н/о +25.8 +23.3 86 +35 +35 очень
душно
1011.9 1012.0
00 19.02 С 1
{3}
20 км н/о +25.4 +22.7 85 +33 +33 очень
душно
1011.4 1011.0
03 19.02 С 3
{6}
20 км 3/3 600 м
[Cu Sc]
+26.9 +23.8 83 +37 +37 очень
душно
1012.3 1012.0
06 19.02 СВ 6
{9}
10 км 5/5 660 м
[Cu Sc Ac trans]
+30.3 +24.0 69 +42 +44 опасность
перегрева
1013.6 1014.0 +25.3 1
09 19.02 СВ 4
{16}
5000 м в посл. час гроза 6/6 540 м
[Cb cap Ac trans]
+25.5 +23.2 87 +34 +41 очень
душно
1013.5 1014.0 9
12 19.02 С 6
{9}
20 км {гроза, ливн. осадки} 4/3 600 м
[Cu Sc Ci sp]
+30.3 +23.5 67 +41 +44 опасность
перегрева
1011.1 1011.0 9
15 19.02 С 4
{7}
20 км 4/3 660 м
[Cu Sc Ci sp]
+29.1 +23.1 70 +39 +39 очень
душно
1011.2 1011.0
18 19.02 С 2
{4}
20 км н/о +27.5 +23.7 80 +38 +38 очень
душно
1012.4 1012.0 +30.9 9
21 19.02 С 4
{6}
20 км н/о +27.8 +23.8 79 +38 +38 очень
душно
1012.2 1012.0
00 20.02 С 3
{4}
20 км н/о +27.1 +23.8 82 +37 +37 очень
душно
1010.2 1010.0
03 20.02 С 3
{7}
15 км слабый ливневой дождь 4/4 600 м
[Cu Sc]
+26.7 +23.2 81 +36 +36 очень
душно
1010.9 1011.0
06 20.02 СЗ 5
{8}
20 км {ливн. осадки} 4/4 660 м
[Cu Sc]
+29.8 +24.0 71 +41 +45 опасность
перегрева
1012.5 1013.0 +26.6 9
09 20.02 СЗ 6
{10}
14 км осадки на расстоянии 5/5 630 м
[Cu Sc]
+31.3 +24.2 66 +43 +48 опасность
перегрева
1011.1 1011.0
12 20.02 СЗ 7
{12}
20 км 4/4 630 м
[Cu Sc Ac trans]
+31.2 +23.8 65 +43 +45 опасность
перегрева
1009.0 1009.0
15 20.02 СЗ 6
{9}
20 км 6/3 630 м
[Cu Sc Ac trans Ci sp]
+29.4 +23.8 72 +40 +40 очень
душно
1009.5 1010.0
18 20.02 С 3
{11}
20 км 10/10 1500 м
[]
+25.7 +22.6 83 +34 +34 очень
душно
1011.1 1011.0 +31.9 1
21 20.02 З 2
{3}
20 км н/о +25.9 +23.4 86 +35 +35 очень
душно
1011.4 1011.0
00 21.02 Ю 6
{9}
15 км 10/10 300 м
[]
+25.6 +23.5 88 +35 +35 очень
душно
1010.2 1010.0 4
03 21.02 ЮВ 3
{7}
12 км {ливн. осадки} 10/1 400 м
[Cu Sc Ac As Cs]
+25.0 +22.1 84 +32 +32 очень
душно
1011.4 1011.0 18
06 21.02 Ю 2 12 км {ливн. осадки} 9/1 540 м
[Cu Sc Ac As]
+28.2 +22.4 71 +37 +41 очень
душно
1013.0 1013.0 +23.9 23
09 21.02 З 5
{8}
12 км слабый дождь {ливн. осадки} 10/1 900 м
[Cu Sc Ac As]
+27.1 +23.8 82 +37 +40 очень
душно
1011.5 1012.0 0.4
12 21.02 З 6
{9}
20 км {дождь} 10/3 660 м
[Cu Sc Ac As Cs]
+27.6 +22.5 74 +36 +38 очень
душно
1010.7 1011.0 0.4
15 21.02 СЗ 2
{6}
20 км н/о +26.8 +22.0 75 +35 +35 очень
душно
1009.8 1010.0
18 21.02 З 4
{5}
20 км н/о +26.9 +22.9 79 +36 +36 очень
душно
1012.4 1012.0 +29.0 0.4
21 21.02 З 2
{4}
20 км н/о +25.5 +23.2 87 +34 +34 очень
душно
1012.8 1013.0 0.0
00 22.02 СЗ 1
{2}
20 км 9/0
[]
+24.9 +23.1 90 +33 +33 очень
душно
1011.2 1011.0 0.0
03 22.02 С 3
{6}
6000 м слабый ливневой дождь 9/8 540 м
[Cb cap Ac trans Ci]
+25.6 +22.9 85 +34 +34 очень
душно
1012.9 1013.0 0.4
06 22.02 Ю 2 20 км в посл. час дождь {ливн. осадки} 8/1 750 м
[Cu Sc Ac As Ci fib]
+27.0 +22.8 78 +36 +43 очень
душно
1013.8 1014.0 +24.9 3
09 22.02 Ю 2
{4}
20 км 8/1 750 м
[Cu Sc Ac As Ci fib]
+30.0 +22.7 65 +40 +52 опасность
солнечного
удара
1012.2 1012.0
12 22.02 В 3
{6}
20 км 9/0
[]
+30.7 +23.1 64 +41 +47 опасность
перегрева
1010.6 1011.0
15 22.02 СЗ 1
{5}
20 км 9/6 660 м
[Cu Sc Ac trans]
+28.3 +20.8 64 +35 +35 очень
душно
1011.2 1011.0
18 22.02 СВ 1
{3}
20 км 10/10 1500 м
[]
+26.5 +23.8 85 +36 +36 очень
душно
1012.3 1012.0 +31.1 0.8
21 22.02 СВ 1
{2}
20 км н/о +25.5 +23.4 88 +34 +34 очень
душно
1012.3 1012.0
00 23.02 С 2
{4}
20 км н/о +26.8 +23.7 83 +37 +37 очень
душно
1010.4 1010.0
03 23.02 СВ 2
{3}
20 км 5/3 660 м
[Cu Sc Ci sp]
+25.9 +23.6 87 +35 +35 очень
душно
1010.7 1011.0
06 23.02 В 3
{5}
20 км 4/3 660 м
[Cu med, cong Ci sp]
+31.1 +24.2 67 +43 +50 опасность
перегрева
1012.5 1013.0 +25.5 0.8
09 23.02 СВ 4
{8}
20 км 5/4 700 м
[Cu med, cong Ci sp]
+31.8 +24.7 66 +45 +54 опасность
перегрева
1012.0 1012.0
12 23.02 СВ 4
{9}
20 км осадки на расстоянии 5/5 700 м
[Cu Sc Ac trans Ci sp]
+29.7 +23.6 70 +41 +44 опасность
перегрева
1010.4 1010.0
15 23.02 СЗ 3
{9}
10 км в посл. час ливневой дождь 6/4 450 м
[Cu Sc Ac As Ci sp]
+25.9 +23.4 86 +35 +35 очень
душно
1011.2 1011.0 7
18 23.02 С 3
{8}
20 км н/о +26.8 +24.5 87 +38 +38 очень
душно
1012.3 1012.0 +32.1 8
21 23.02 С 3
{8}
19 км н/о +25.8 +23.8 89 +35 +35 очень
душно
1012.2 1012.0 3
00 24.02 С 2
{5}
20 км н/о +27.0 +24.3 85 +38 +38 очень
душно
1011.4 1011.0 3
03 24.02 С 4
{14}
10 км осадки на расстоянии 9/9 150 м
[Cb cap]
+26.0 +23.3 85 +35 +35 очень
душно
1012.3 1012.0 37

 

Местоположение метеостанции Dzaoudzi (Коморские Острова): широта -12.80 долгота 45.28 высота над уровнем моря 7 м.

В архиве по умолчанию представлена погода в Dzaoudzi за последнюю неделю. Архивные данные за месяц целиком и за предыдущие месяцы, начиная с января 2011 года, Вы можете получить, выбрав интересующий диапазон дат из раскрывающегося списка и нажав кнопку "Ввод!".

Внимание! Время в таблицах - всемирное. Для получения местного времени необходимо прибавить поправку, которая в Dzaoudzi равна 3 ч.

Смотрите также архив погоды в соседних городах и на ближайших метеорологических станциях:

Погода в Iles Glorieuses (Реюньон) (254 км)
Погода в Moroni (Коморские Острова) (260 км)
Погода в Fascene (Мадагаскар) (334 км)
Погода в Mahajanga (Мадагаскар) (338 км)
Погода в Antsohihy (Мадагаскар) (372 км)
Погода в Antsiranana (Мадагаскар) (439 км)
Погода в Besalampy (Мадагаскар) (448 км)
Погода в Pemba (Мадагаскар) (515 км)
Погода в Ile Juan De Nova (Реюньон) (543 км)
Погода в Sambava (Мадагаскар) (554 км)

Пояснения к столбцам:

Ветер - указаны скорость ветра в м/с - средняя за 10 мин, порывы в срок и между сроками (в фигурных скобках) и направление, откуда дует ветер: С - северный, СВ - северо-восточный, В - восточный, ЮВ - юго-восточный, Ю - южный, ЮЗ - юго-западный, З - западный, СЗ - северо-западный.
Видимость - горизонтальная дальность видимости в метрах или километрах. При видимости от 1 до 10 км при отсутствии осадков обычно наблюдается дымка, при ухудшении видимости до 1 км и менее - туман. В сухую погоду видимость может ухудшаться дымом, пылью или мглою.
Явления - указаны атмосферные явления, наблюдавшиеся в срок или в последний час перед сроком; фигурными скобками обозначены явления, наблюдавшиеся между сроками (за 1-3 часа до срока); квадратными скобками обозначены град или гололедные отложения с указанием их диаметра в мм.
Облачность - указаны через наклонную черту общая и нижняя облачность в баллах и высота нижней границы облаков в метрах; квадратными скобками обозначены формы облаков: Ci - перистые, Cs - перисто-слоистые, Cc - перисто-кучевые, Ac - высококучевые, As - высокослоистые, Sc - слоисто-кучевые, Ns - слоисто-дождевые, Cu - кучевые, Cb - кучево-дождевые. Подробнее классификацию облаков см. в Атласе облаков (PDF).
T - Температура воздуха - температура, измеренная на высоте 2 м над землей.
Td - Температура точки росы - температура, при понижении до которой содержащийся в воздухе водяной пар достигнет насыщения.
f - Относительная влажность воздуха - влажноcть воздуха, измеренная на высоте 2 м над землей.
Te - Эффективная температура - температура, которую ощущает одетый по сезону человек в тени. Характеристика душности погоды. При расчете учитывается влияние влажности воздуха и скорости ветра на теплоощущения человека.
Tes - Эффективная температура на солнце - температура, которую ощущает человек, с поправкой на солнечный нагрев. Характеристика знойности погоды. Зависит от высоты солнца над горизонтом, облачности и скорости ветра. Ночью, в пасмурную погоду, а также при ветре 12 м/с и более поправка равна нулю.
P - Атмосферное давление - приведенное к уровню моря атмосферное давление.
Po - Атмосферное давление - измеренное на уровне метеостанции атмосферное давление.
Tmin - Минимальная температура - минимум температуры воздуха на высоте 2 м над землей.
Tmax - Максимальная температура - максимум температуры воздуха на высоте 2 м над землей.
R - Количество осадков - Количество выпавших осадков, мм. При наведении курсора мыши на число - период времени, за который выпало указанное количество осадков.
S - Снежный покров - Высота снежного покрова, см. При наведении курсора мыши на число - состояние снежного покрова и степень покрытия местности в баллах.